Harvey, ND

7:02 AM CDT on July 22, 2017 (GMT -0500)
Harvey

Weather History for K5H4 - March, 2012

Change the Weather History Date:

Tuesday, March 13, 2012

  Actual Average (KRUG) Record (KRUG)
Temperature  
Mean Temperature 43 °F -  
Max Temperature 60 °F 33 °F 62 °F (2016)
Min Temperature 26 °F 15 °F -23 °F (1993)
Degree Days  
Heating Degree Days 22    
Moisture  
Dew Point 32 °F    
Average Humidity 64    
Maximum Humidity 93    
Minimum Humidity 41    
Precipitation  
Precipitation 0.00 in - - ()
Sea Level Pressure  
Sea Level Pressure 29.69 in    
Wind  
Wind Speed 10 mph (SSE)    
Max Wind Speed 22 mph    
Max Gust Speed 33 mph    
Visibility 10 miles    
Events      
Averages and records for this station are not official NWS values.
T = Trace of Precipitation, MM = Missing Value Source: NWS Daily Summary

Daily Weather History Graph

Daily Weather History Graph

Search for Another Location

Airport or City:

Trip Planner

Search our weather history database for the weather conditions in past years. The results will help you decide how hot, cold, wet, or windy it might be!

Date:

Astronomy

Mar. 13, 2012 Rise Set
Actual Time 7:55 AM CDT 7:43 PM CDT
Civil Twilight 7:24 AM CDT 8:13 PM CDT
Nautical Twilight 6:49 AM CDT 8:49 PM CDT
Astronomical Twilight 6:12 AM CDT 9:26 PM CDT
Moon 1:44 AM CDT (3/13) 10:41 AM CDT (3/13)
Length of Visible Light 12h 48m
Length of Day
11h 47m
Waning Gibbous, 65% of the Moon is Illuminated
Mar 13
Waning Gibbous
Mar 14
Last Quarter
Mar 22
New
Mar 30
First Quarter
Apr 6
Full

Hourly Weather History & Observations

Time (CDT) Temp. Windchill Dew Point Humidity Pressure Visibility Wind Dir Wind Speed Gust Speed Precip Events Conditions
12:15 AM 32.0 °F 26.4 °F 24.8 °F 75% 29.82 in 10.0 mi WSW 5.8 mph - N/A   Clear
12:35 AM 30.2 °F 25.4 °F 24.8 °F 80% 29.82 in 10.0 mi West 4.6 mph - N/A   Clear
12:55 AM 32.0 °F 27.5 °F 24.8 °F 75% 29.82 in 10.0 mi West 4.6 mph - N/A   Clear
1:15 AM 30.2 °F 23.4 °F 24.8 °F 80% 29.83 in 10.0 mi SSW 6.9 mph - N/A   Clear
1:55 AM 28.4 °F 22.2 °F 24.8 °F 86% 29.82 in 10.0 mi South 5.8 mph - N/A   Clear
2:15 AM 28.4 °F 24.6 °F 24.8 °F 86% 29.82 in 10.0 mi South 3.5 mph - N/A   Clear
2:35 AM 28.4 °F 24.6 °F 26.6 °F 93% 29.82 in 10.0 mi SSE 3.5 mph - N/A   Clear
2:55 AM 28.4 °F 23.3 °F 24.8 °F 86% 29.82 in 10.0 mi SE 4.6 mph - N/A   Clear
3:15 AM 32.0 °F 25.6 °F 23.0 °F 69% 29.84 in 10.0 mi SSW 6.9 mph - N/A   Clear
3:35 AM 32.0 °F 25.6 °F 23.0 °F 69% 29.84 in 10.0 mi South 6.9 mph - N/A   Clear
3:55 AM 32.0 °F 24.8 °F 23.0 °F 69% 29.84 in 10.0 mi South 8.1 mph - N/A   Clear
4:15 AM 32.0 °F 24.8 °F 23.0 °F 69% 29.84 in 10.0 mi SSE 8.1 mph - N/A   Clear
4:35 AM 26.6 °F 21.2 °F 24.8 °F 93% 29.83 in 10.0 mi SSE 4.6 mph - N/A   Clear
4:55 AM 30.2 °F 23.4 °F 24.8 °F 80% 29.83 in 10.0 mi South 6.9 mph - N/A   Clear
5:15 AM 32.0 °F 24.8 °F 23.0 °F 69% 29.83 in 10.0 mi SSE 8.1 mph - N/A   Clear
5:35 AM 32.0 °F 24.8 °F 23.0 °F 69% 29.83 in 10.0 mi South 8.1 mph - N/A   Clear
5:55 AM 32.0 °F 25.6 °F 23.0 °F 69% 29.83 in 10.0 mi South 6.9 mph - N/A   Clear
6:15 AM 32.0 °F 25.6 °F 23.0 °F 69% 29.83 in 10.0 mi SSE 6.9 mph - N/A   Clear
6:35 AM 32.0 °F 23.6 °F 23.0 °F 69% 29.83 in 10.0 mi SSE 10.4 mph - N/A   Clear
6:55 AM 32.0 °F 25.6 °F 23.0 °F 69% 29.83 in 10.0 mi SSE 6.9 mph - N/A   Clear
7:55 AM 32.0 °F 24.2 °F 23.0 °F 69% 29.82 in 10.0 mi SSE 9.2 mph - N/A   Clear
8:15 AM 32.0 °F 24.2 °F 23.0 °F 69% 29.81 in 10.0 mi SSE 9.2 mph - N/A   Clear
8:35 AM 32.0 °F 24.2 °F 23.0 °F 69% 29.80 in 10.0 mi SSE 9.2 mph - N/A   Clear
8:55 AM 32.0 °F 24.8 °F 24.8 °F 75% 29.80 in 10.0 mi SSE 8.1 mph - N/A   Clear
9:15 AM 35.6 °F 29.9 °F 24.8 °F 65% 29.79 in 10.0 mi SE 6.9 mph - N/A   Clear
9:35 AM 37.4 °F 30.8 °F 24.8 °F 60% 29.78 in 10.0 mi SSE 9.2 mph - N/A   Clear
9:55 AM 39.2 °F 32.5 °F 24.8 °F 56% 29.78 in 10.0 mi SSE 10.4 mph - N/A   Clear
10:15 AM 41.0 °F 35.2 °F 24.8 °F 53% 29.77 in 10.0 mi SSE 9.2 mph - N/A   Clear
10:35 AM 42.8 °F 36.6 °F 24.8 °F 49% 29.76 in 10.0 mi SSE 11.5 mph 18.4 mph N/A   Clear
10:55 AM 44.6 °F 39.2 °F 26.6 °F 49% 29.75 in 10.0 mi SSE 10.4 mph 17.3 mph N/A   Clear
11:15 AM 46.4 °F 40.7 °F 28.4 °F 50% 29.73 in 10.0 mi SE 12.7 mph 18.4 mph N/A   Clear
11:35 AM 48.2 °F - 30.2 °F 50% 29.72 in 10.0 mi SE 13.8 mph - N/A   Clear
11:55 AM 51.8 °F - 32.0 °F 47% 29.70 in 10.0 mi SE 13.8 mph 20.7 mph N/A   Clear
12:15 PM 53.6 °F - 32.0 °F 44% 29.69 in 10.0 mi SE 16.1 mph 20.7 mph N/A   Clear
12:35 PM 55.4 °F - 33.8 °F 44% 29.68 in 10.0 mi SSE 21.9 mph 33.4 mph N/A   Clear
12:55 PM 57.2 °F - 33.8 °F 41% 29.67 in 10.0 mi SSE 18.4 mph 27.6 mph N/A   Clear
1:15 PM 57.2 °F - 35.6 °F 44% 29.66 in 10.0 mi SSE 21.9 mph 28.8 mph N/A   Clear
1:35 PM 59.0 °F - 35.6 °F 42% 29.66 in 10.0 mi SSE 18.4 mph 29.9 mph N/A   Clear
1:55 PM 59.0 °F - 37.4 °F 45% 29.64 in 10.0 mi SSE 20.7 mph 27.6 mph N/A   Clear
2:15 PM 59.0 °F - 37.4 °F 45% 29.63 in 10.0 mi SE 17.3 mph 27.6 mph N/A   Clear
2:35 PM 57.2 °F - 37.4 °F 48% 29.62 in 10.0 mi SSE 20.7 mph 26.5 mph N/A   Clear
3:15 PM 59.0 °F - 39.2 °F 48% 29.58 in 10.0 mi SE 17.3 mph 28.8 mph N/A   Clear
3:35 PM 59.0 °F - 39.2 °F 48% 29.57 in 10.0 mi SSE 20.7 mph 26.5 mph N/A   Clear
3:55 PM 59.0 °F - 39.2 °F 48% 29.56 in 10.0 mi SSE 20.7 mph 29.9 mph N/A   Clear
4:15 PM 59.0 °F - 41.0 °F 51% 29.55 in 10.0 mi SSE 20.7 mph 24.2 mph N/A   Clear
4:35 PM 60.8 °F - 41.0 °F 48% 29.54 in 10.0 mi SSE 19.6 mph 25.3 mph N/A   Clear
4:55 PM 60.8 °F - 41.0 °F 48% 29.54 in 10.0 mi SSE 18.4 mph 26.5 mph N/A   Clear
5:15 PM 60.8 °F - 42.8 °F 52% 29.54 in 10.0 mi SSE 15.0 mph 24.2 mph N/A   Clear
5:35 PM 60.8 °F - 42.8 °F 52% 29.52 in 10.0 mi SSE 18.4 mph 26.5 mph N/A   Clear
5:55 PM 60.8 °F - 44.6 °F 55% 29.52 in 10.0 mi SSE 13.8 mph 20.7 mph N/A   Clear
6:15 PM 60.8 °F - 42.8 °F 52% 29.51 in 10.0 mi SSE 16.1 mph 21.9 mph N/A   Clear
6:35 PM 59.0 °F - 42.8 °F 55% 29.51 in 10.0 mi SSE 13.8 mph 18.4 mph N/A   Clear
6:55 PM 59.0 °F - 44.6 °F 59% 29.50 in 10.0 mi SSE 12.7 mph 20.7 mph N/A   Clear
7:15 PM 57.2 °F - 44.6 °F 63% 29.49 in 10.0 mi SE 13.8 mph 19.6 mph N/A   Clear
7:35 PM 57.2 °F - 44.6 °F 63% 29.49 in 10.0 mi SE 11.5 mph - N/A   Clear
7:55 PM 55.4 °F - 46.4 °F 72% 29.48 in 10.0 mi SE 13.8 mph - N/A   Clear
8:15 PM 51.8 °F - 46.4 °F 82% 29.47 in 10.0 mi ESE 12.7 mph - N/A   Clear
8:35 PM 48.2 °F - 46.4 °F 93% 29.47 in 10.0 mi ESE 11.5 mph - N/A   Clear
8:55 PM 48.2 °F - 46.4 °F 93% 29.46 in 10.0 mi ESE 12.7 mph - N/A   Clear
9:15 PM 46.4 °F 41.1 °F 44.6 °F 93% 29.45 in 10.0 mi SE 11.5 mph - N/A   Clear
9:35 PM 46.4 °F 41.9 °F 44.6 °F 93% 29.46 in 10.0 mi SE 9.2 mph - N/A   Clear
9:55 PM 48.2 °F - 44.6 °F 87% 29.45 in 10.0 mi SE 10.4 mph - N/A   Clear
10:15 PM 48.2 °F - 44.6 °F 87% 29.45 in 10.0 mi SSE 12.7 mph - N/A   Clear
10:35 PM 48.2 °F - 44.6 °F 87% 29.44 in 10.0 mi SSE 15.0 mph - N/A   Clear
10:55 PM 48.2 °F - 44.6 °F 87% 29.44 in 10.0 mi SSE 13.8 mph - N/A   Clear
11:15 PM 48.2 °F - 42.8 °F 82% 29.44 in 10.0 mi SSE 11.5 mph - N/A   Clear
11:35 PM 46.4 °F 41.5 °F 41.0 °F 81% 29.43 in 10.0 mi SSE 10.4 mph - N/A   Clear
11:55 PM 46.4 °F 41.5 °F 41.0 °F 81% 29.42 in 10.0 mi South 10.4 mph - N/A   Clear